SAS1218 EKYT-EKCH

Flight info

Callsign SAS1218
Flight time 0h 32m
Altitude 17000
Route AAL M725 ADSEN DCT TNO
Aircraft A319/M-SDE3FGHIRWY/LB1

Departure

Time 2026-04-23 19:12
Airport Aalborg Airport (EKYT)

Arrival

Time 2026-04-23 19:44
Airport Copenhagen Kastrup Airport (EKCH)
Time Latitude Longitude Altitude Speed Heading
2026-04-23 18:38 57.08740 9.86939 19 ft 0 kts 55°
2026-04-23 19:02 57.08740 9.86938 19 ft 1 kts 55°
2026-04-23 19:02 57.08729 9.86908 22 ft 3 kts 55°
2026-04-23 19:02 57.08717 9.86877 19 ft 3 kts 52°
2026-04-23 19:02 57.08704 9.86849 21 ft 3 kts 38°
2026-04-23 19:03 57.08690 9.86834 22 ft 3 kts 350°
2026-04-23 19:03 57.08681 9.86840 21 ft 2 kts 318°
2026-04-23 19:03 57.08672 9.86855 19 ft 1 kts 317°
2026-04-23 19:03 57.08672 9.86856 19 ft 0 kts 317°
2026-04-23 19:06 57.08677 9.86847 19 ft 3 kts 317°
2026-04-23 19:06 57.08707 9.86797 19 ft 9 kts 317°
2026-04-23 19:06 57.08766 9.86704 19 ft 14 kts 323°
2026-04-23 19:06 57.08861 9.86570 19 ft 20 kts 322°
2026-04-23 19:07 57.08984 9.86391 19 ft 24 kts 321°
2026-04-23 19:07 57.09129 9.86185 19 ft 28 kts 323°
2026-04-23 19:07 57.09281 9.85975 19 ft 17 kts 323°
2026-04-23 19:07 57.09345 9.85956 20 ft 11 kts 57°
2026-04-23 19:08 57.09359 9.86110 19 ft 14 kts 84°
2026-04-23 19:08 57.09370 9.86297 19 ft 16 kts 84°
2026-04-23 19:08 57.09384 9.86514 19 ft 18 kts 83°
2026-04-23 19:08 57.09401 9.86759 19 ft 21 kts 83°
2026-04-23 19:09 57.09418 9.87036 19 ft 23 kts 83°
2026-04-23 19:09 57.09437 9.87343 19 ft 25 kts 83°
2026-04-23 19:09 57.09459 9.87658 20 ft 17 kts 73°
2026-04-23 19:09 57.09516 9.87738 19 ft 0 kts 12°
2026-04-23 19:10 57.09526 9.87742 19 ft 3 kts 12°
2026-04-23 19:10 57.09556 9.87743 20 ft 6 kts 353°
2026-04-23 19:11 57.09610 9.87700 19 ft 11 kts 326°
2026-04-23 19:11 57.09645 9.87544 19 ft 17 kts 265°
2026-04-23 19:11 57.09610 9.87002 19 ft 86 kts 263°
2026-04-23 19:11 57.09506 9.85392 111 ft 152 kts 263°
2026-04-23 19:12 57.09423 9.84130 669 ft 149 kts 263°
2026-04-23 19:12 57.09249 9.81599 1796 ft 152 kts 263°
2026-04-23 19:12 57.08668 9.79862 2254 ft 175 kts 219°
2026-04-23 19:12 57.07438 9.79196 2506 ft 201 kts 174°
2026-04-23 19:13 57.06119 9.80248 2749 ft 224 kts 143°
2026-04-23 19:13 57.04784 9.82016 3080 ft 249 kts 142°
2026-04-23 19:13 57.03324 9.83998 3642 ft 270 kts 141°
2026-04-23 19:13 57.01791 9.86076 4554 ft 277 kts 141°
2026-04-23 19:14 57.00220 9.88188 5521 ft 283 kts 142°
2026-04-23 19:14 56.98610 9.90334 6446 ft 290 kts 143°
2026-04-23 19:14 56.96944 9.92541 7217 ft 299 kts 143°
2026-04-23 19:14 56.95233 9.94796 8104 ft 306 kts 143°
2026-04-23 19:15 56.93514 9.97052 8970 ft 311 kts 143°
2026-04-23 19:15 56.91743 9.99375 9833 ft 316 kts 143°
2026-04-23 19:15 56.89931 10.01750 10466 ft 330 kts 143°
2026-04-23 19:15 56.88000 10.04281 10747 ft 353 kts 143°
2026-04-23 19:16 56.85945 10.06972 11099 ft 371 kts 143°
2026-04-23 19:16 56.83825 10.09740 11734 ft 378 kts 143°
2026-04-23 19:16 56.81670 10.12546 12047 ft 381 kts 143°
2026-04-23 19:17 56.78086 10.17202 12161 ft 381 kts 143°
2026-04-23 19:17 56.75917 10.20019 12453 ft 385 kts 143°
2026-04-23 19:17 56.73734 10.22850 13209 ft 386 kts 143°
2026-04-23 19:17 56.71536 10.25700 13919 ft 389 kts 143°
2026-04-23 19:18 56.68600 10.29502 14751 ft 394 kts 143°
2026-04-23 19:18 56.66356 10.32406 15370 ft 397 kts 143°
2026-04-23 19:18 56.64830 10.34379 15790 ft 400 kts 143°
2026-04-23 19:18 56.62584 10.37276 16394 ft 403 kts 143°
2026-04-23 19:19 56.57970 10.43216 17119 ft 409 kts 143°
2026-04-23 19:19 56.55602 10.46255 17164 ft 424 kts 143°
2026-04-23 19:20 56.50721 10.52500 17150 ft 432 kts 143°
2026-04-23 19:20 56.48263 10.55632 17122 ft 429 kts 143°
2026-04-23 19:20 56.45854 10.58692 16862 ft 418 kts 144°
2026-04-23 19:20 56.43492 10.61681 16607 ft 412 kts 144°
2026-04-23 19:21 56.41151 10.64650 16353 ft 410 kts 143°
2026-04-23 19:21 56.36539 10.70505 15846 ft 406 kts 143°
2026-04-23 19:21 56.34231 10.73427 15601 ft 404 kts 143°
2026-04-23 19:22 56.31933 10.76332 15360 ft 403 kts 143°
2026-04-23 19:22 56.29644 10.79220 15119 ft 402 kts 144°
2026-04-23 19:22 56.25078 10.84963 14645 ft 399 kts 144°
2026-04-23 19:23 56.22810 10.87811 14427 ft 397 kts 144°
2026-04-23 19:23 56.20550 10.90649 14194 ft 396 kts 144°
2026-04-23 19:23 56.18297 10.93474 13959 ft 394 kts 144°
2026-04-23 19:24 56.13809 10.99078 13439 ft 392 kts 144°
2026-04-23 19:24 56.11604 11.01818 13203 ft 390 kts 144°
2026-04-23 19:24 56.07147 11.07342 13145 ft 390 kts 144°
2026-04-23 19:25 56.02679 11.12871 13157 ft 391 kts 144°
2026-04-23 19:25 55.98209 11.18402 13157 ft 391 kts 144°
2026-04-23 19:26 55.93739 11.23922 13158 ft 391 kts 144°
2026-04-23 19:26 55.91505 11.26674 13160 ft 391 kts 144°
2026-04-23 19:27 55.87076 11.32113 13155 ft 380 kts 144°
2026-04-23 19:27 55.80971 11.39570 13154 ft 336 kts 142°
2026-04-23 19:28 55.77949 11.45677 13153 ft 327 kts 114°
2026-04-23 19:28 55.76683 11.53259 13146 ft 318 kts 92°
2026-04-23 19:29 55.76387 11.57155 13143 ft 319 kts 93°
2026-04-23 19:29 55.75764 11.64948 12726 ft 318 kts 93°
2026-04-23 19:30 55.75132 11.72629 12225 ft 315 kts 93°
2026-04-23 19:30 55.74819 11.76474 11969 ft 314 kts 93°
2026-04-23 19:30 55.74200 11.84116 11471 ft 312 kts 93°
2026-04-23 19:31 55.73889 11.87924 11241 ft 311 kts 93°
2026-04-23 19:31 55.73578 11.91712 10995 ft 310 kts 93°
2026-04-23 19:31 55.73266 11.95492 10752 ft 309 kts 93°
2026-04-23 19:31 55.72956 11.99262 10444 ft 308 kts 93°
2026-04-23 19:32 55.72647 12.03027 10050 ft 309 kts 93°
2026-04-23 19:32 55.72338 12.06752 9622 ft 309 kts 93°
2026-04-23 19:32 55.72022 12.10503 9291 ft 306 kts 93°
2026-04-23 19:32 55.71706 12.14237 8913 ft 305 kts 93°
2026-04-23 19:33 55.71393 12.17935 8563 ft 303 kts 93°
2026-04-23 19:33 55.70922 12.21575 8203 ft 306 kts 107°
2026-04-23 19:33 55.68382 12.27602 7489 ft 310 kts 138°
2026-04-23 19:34 55.66743 12.30081 7118 ft 310 kts 138°
2026-04-23 19:34 55.65108 12.32552 6770 ft 308 kts 138°
2026-04-23 19:34 55.61692 12.36995 6072 ft 304 kts 161°
2026-04-23 19:35 55.59635 12.37476 5783 ft 296 kts 188°
2026-04-23 19:35 55.57718 12.36417 5473 ft 285 kts 214°
2026-04-23 19:35 55.56199 12.34315 5108 ft 281 kts 226°
2026-04-23 19:35 55.54730 12.32045 4735 ft 280 kts 225°
2026-04-23 19:36 55.53267 12.29799 4440 ft 277 kts 224°
2026-04-23 19:36 55.51838 12.27617 4309 ft 267 kts 224°
2026-04-23 19:36 55.50458 12.25516 4178 ft 257 kts 224°
2026-04-23 19:36 55.49128 12.23489 4038 ft 248 kts 224°
2026-04-23 19:37 55.47611 12.21887 3397 ft 265 kts 198°
2026-04-23 19:37 55.45771 12.21791 3056 ft 268 kts 166°
2026-04-23 19:37 55.44132 12.23328 3022 ft 270 kts 136°
2026-04-23 19:37 55.43110 12.26058 3025 ft 269 kts 106°
2026-04-23 19:38 55.42883 12.29204 3015 ft 251 kts 81°
2026-04-23 19:38 55.43301 12.32008 3015 ft 231 kts 64°
2026-04-23 19:38 55.43758 12.34645 3017 ft 221 kts 73°
2026-04-23 19:38 55.44091 12.37272 3018 ft 217 kts 69°
2026-04-23 19:39 55.44912 12.39236 3028 ft 190 kts 25°
2026-04-23 19:39 55.46026 12.40145 3008 ft 167 kts 26°
2026-04-23 19:39 55.46865 12.41403 3021 ft 148 kts 35°
2026-04-23 19:39 55.47613 12.42534 2961 ft 138 kts 34°
2026-04-23 19:40 55.48328 12.43619 2832 ft 134 kts 34°
2026-04-23 19:40 55.49029 12.44688 2677 ft 133 kts 34°
2026-04-23 19:40 55.49726 12.45752 2508 ft 132 kts 34°
2026-04-23 19:40 55.50421 12.46816 2339 ft 132 kts 35°
2026-04-23 19:41 55.51115 12.47880 2152 ft 132 kts 35°
2026-04-23 19:41 55.51799 12.48930 1976 ft 132 kts 36°
2026-04-23 19:41 55.52492 12.49994 1796 ft 132 kts 36°
2026-04-23 19:41 55.53186 12.51060 1616 ft 132 kts 36°
2026-04-23 19:42 55.53878 12.52124 1432 ft 132 kts 36°
2026-04-23 19:42 55.54565 12.53181 1259 ft 131 kts 37°
2026-04-23 19:42 55.55251 12.54238 1064 ft 130 kts 37°
2026-04-23 19:42 55.55933 12.55287 892 ft 130 kts 38°
2026-04-23 19:43 55.56615 12.56337 724 ft 129 kts 39°
2026-04-23 19:43 55.57288 12.57374 558 ft 128 kts 39°
2026-04-23 19:43 55.57958 12.58407 390 ft 127 kts 40°
2026-04-23 19:43 55.58622 12.59430 218 ft 127 kts 40°
2026-04-23 19:44 55.59278 12.60449 52 ft 125 kts 41°
2026-04-23 19:44 55.59836 12.61311 17 ft 70 kts 40°
2026-04-23 19:44 55.60150 12.61787 19 ft 61 kts 40°
2026-04-23 19:44 55.60460 12.62244 21 ft 43 kts 27°
2026-04-23 19:45 55.60727 12.62380 17 ft 37 kts 11°
2026-04-23 19:45 55.60909 12.62587 17 ft 32 kts 41°
2026-04-23 19:45 55.61090 12.62866 17 ft 37 kts 41°
2026-04-23 19:45 55.61295 12.63182 19 ft 42 kts 41°
2026-04-23 19:46 55.61526 12.63541 18 ft 47 kts 41°
2026-04-23 19:46 55.61791 12.63950 17 ft 50 kts 41°
2026-04-23 19:46 55.61938 12.64134 17 ft 18 kts 25°
2026-04-23 19:46 55.62060 12.64235 17 ft 21 kts 25°
2026-04-23 19:47 55.62160 12.64315 19 ft 1 kts 25°
2026-04-23 19:47 55.62163 12.64316 18 ft 2 kts 25°
2026-04-23 19:47 55.62195 12.64343 16 ft 8 kts 25°
2026-04-23 19:48 55.62250 12.64417 17 ft 12 kts 60°
2026-04-23 19:48 55.62286 12.64560 17 ft 14 kts 65°
2026-04-23 19:48 55.62360 12.64675 17 ft 16 kts
2026-04-23 19:48 55.62484 12.64660 17 ft 19 kts 352°